Location: Dampvalley
(47.9094°N, 6.1967°E)
Time: 01:45:41
(UTC+00:00)

N. Korean satellite - Pass Details

Date: 12 December 2022
Orbit: 408 x 444 km, 97.3° (Epoch: 28 January)

Event Time Altitude Azimuth Distance (km) Brightness Sun altitude
Rises 16:30:35 0° 187° (S) 2,476 10.7 -7.8°
Reaches altitude 10° 16:32:44 10° 197° (SSW) 1,612 9.9 -8.1°
Maximum altitude 16:35:55 33° 263° (W) 800 8.5 -8.6°
Drops below altitude 10° 16:39:08 10° 330° (NNW) 1,634 9.3 -9.1°
Sets 16:41:20 0° 340° (NNW) 2,515 10.2 -9.4°
